Montego Bay, Jamaica

7:18 AM EST on May 24, 2018 (GMT -0500)
Sangster International

Weather History for MKJS - January, 2014

Change the Weather History Date:

Wednesday, January 22, 2014

  Actual Average Record
Temperature  
Mean Temperature 77 °F -  
Max Temperature 81 °F 81 °F 88 °F (2016)
Min Temperature 73 °F 72 °F 69 °F (2005)
Cooling Degree Days 12    
Growing Degree Days 27 (Base 50)    
Moisture  
Dew Point 71 °F    
Average Humidity 84    
Maximum Humidity 100    
Minimum Humidity 68    
Precipitation  
Precipitation 0.00 in - - ()
Sea Level Pressure  
Sea Level Pressure 30.00 in    
Wind  
Wind Speed 6 mph ()    
Max Wind Speed 14 mph    
Max Gust Speed -    
Visibility 8.1 miles    
Events      
Averages and records for this station are not official NWS values.
T = Trace of Precipitation, MM = Missing Value Source: Averaged Metar Reports

Daily Weather History Graph

Daily Weather History Graph

Search for Another Location

Airport or City:

Astronomy

Jan. 22, 2014 Rise Set
Actual Time 6:46 AM EST 5:59 PM EST
Civil Twilight 6:23 AM EST 6:23 PM EST
Nautical Twilight 5:57 AM EST 6:49 PM EST
Astronomical Twilight 5:30 AM EST 7:15 PM EST
Moon 11:29 PM EST (1/22) 10:43 AM EST (1/22)
Length of Visible Light 11h 59m
Length of Day
11h 12m
Waning Gibbous, 65% of the Moon is Illuminated
Jan 22
Waning Gibbous
Jan 24
Last Quarter
Jan 30
New
Feb 6
First Quarter
Feb 14
Full

Hourly Weather History & Observations

Time (EST) Temp. Dew Point Humidity Pressure Visibility Wind Dir Wind Speed Gust Speed Precip Events Conditions
12:00 AM 73.4 °F 73.4 °F 100% 29.98 in 6.2 mi Variable 1.2 mph - N/A   Scattered Clouds
1:00 AM 74 °F 73 °F 95% 29.97 in 12 mi SE 3.5 mph - -   Partly Cloudy
1:00 AM 73.4 °F 73.4 °F 100% 29.95 in 6.2 mi SE 3.5 mph - N/A   Partly Cloudy
2:00 AM 73.4 °F 73.4 °F 100% 29.95 in 6.2 mi South 3.5 mph - N/A   Partly Cloudy
3:00 AM 75.2 °F 73.4 °F 94% 29.95 in 6.2 mi Variable 2.3 mph - N/A   Partly Cloudy
4:00 AM 74 °F 72 °F 93% 29.95 in 12 mi SW 4.6 mph - -   Scattered Clouds
4:00 AM 73.4 °F 71.6 °F 94% 29.95 in 6.2 mi SW 4.6 mph - N/A   Partly Cloudy
5:00 AM 75.2 °F 75.2 °F 100% 29.95 in 6.2 mi North 13.8 mph - N/A   Mostly Cloudy
6:00 AM 73.4 °F 73.4 °F 100% 29.98 in 6.2 mi North 12.7 mph - N/A   Mostly Cloudy
7:00 AM 75 °F 71 °F 85% 30.01 in 15 mi NNE 10.4 mph - -   Partly Cloudy
7:00 AM 75.2 °F 71.6 °F 89% 30.01 in 6.2 mi NNE 10.4 mph - N/A   Mostly Cloudy
8:00 AM 77.0 °F 71.6 °F 83% 30.01 in 6.2 mi NE 9.2 mph - N/A   Mostly Cloudy
9:00 AM 77.0 °F 73.4 °F 89% 30.04 in 6.2 mi ENE 9.2 mph - N/A   Mostly Cloudy
10:00 AM 78 °F 73 °F 82% 30.05 in 14 mi ENE 5.8 mph - -   Haze
10:00 AM 78.8 °F 73.4 °F 83% 30.04 in 6.2 mi ENE 5.8 mph - N/A   Mostly Cloudy
11:00 AM 77.0 °F 73.4 °F 89% 30.04 in 6.2 mi NE 8.1 mph - N/A   Mostly Cloudy
12:00 PM 77.0 °F 71.6 °F 83% 30.04 in 6.2 mi NNE 9.2 mph - N/A   Mostly Cloudy
1:00 PM 78 °F 73 °F 79% 30.01 in 14 mi NNE 9.2 mph - -   Haze
1:00 PM 78.8 °F 73.4 °F 83% 30.01 in 6.2 mi NNE 9.2 mph - N/A   Mostly Cloudy
2:00 PM 78.8 °F 71.6 °F 78% 29.98 in 6.2 mi NE 8.1 mph - N/A   Mostly Cloudy
3:00 PM 77.0 °F 69.8 °F 78% 29.98 in 6.2 mi NNE 9.2 mph - N/A   Mostly Cloudy
4:00 PM 77 °F 69 °F 68% 29.99 in 14 mi NE 10.4 mph - -   Haze
4:00 PM 77.0 °F 68.0 °F 74% 29.98 in 6.2 mi NE 10.4 mph - N/A   Mostly Cloudy
5:00 PM 77.0 °F 68.0 °F 74% 30.01 in 6.2 mi NNE 9.2 mph - N/A   Mostly Cloudy
6:00 PM 77.0 °F 68.0 °F 74% 30.01 in 6.2 mi NE 10.4 mph - N/A   Mostly Cloudy
7:00 PM 76 °F 68 °F 69% 30.03 in 14 mi NE 9.2 mph - -   Partly Cloudy
7:00 PM 77.0 °F 68.0 °F 74% 30.01 in 6.2 mi NE 9.2 mph - N/A   Scattered Clouds
8:00 PM 77.0 °F 69.8 °F 78% 30.04 in 6.2 mi NE 8.1 mph - N/A   Partly Cloudy
9:00 PM 77.0 °F 69.8 °F 78% 30.04 in 6.2 mi NE 8.1 mph - N/A   Partly Cloudy
10:00 PM 77 °F 70 °F 74% 30.05 in 14 mi NE 9.2 mph - -   Partly Cloudy
10:00 PM 77.0 °F 69.8 °F 78% 30.04 in 6.2 mi NE 9.2 mph - N/A   Scattered Clouds
11:00 PM 75.2 °F 69.8 °F 83% 30.04 in 6.2 mi ESE 3.5 mph - N/A   Partly Cloudy